Location: Gallinara
(44.0333°N, 8.2333°E)
Time: 02:38:48
(UTC+00:00)

CZ-2C R/B - Pass Details

Date: 25 September 2020
Orbit: 668 x 784 km, 98.2° (Epoch: 29 October)

Event Time Altitude Azimuth Distance (km) Brightness Sun altitude
Rises 02:38:41 0° 23° (NNE) 3,261 6.5 -28.3°
Reaches altitude 10° 02:41:17 10° 34° (NE) 2,339 5.8 -27.9°
Maximum altitude 02:45:49 30° 95° (E) 1,382 4.3 -27.2°
Drops below altitude 10° 02:50:19 10° 156° (SSE) 2,334 5.0 -26.5°
Enters shadow 02:51:13 - 160° (SSE) 2,643 5.2 -26.3°
